GW0126 Weather Reports


Display with metric or nautical units.
time (UTC)temp
F
wind
direction
speed
MPH
gust
MPH
rain 1hr
in
rain 24hr
in
rain mn
in
humidity
%
barometer
mb
20260509031324 46 245 0.0 0.0 0.00 0.00 0.00 88 1020.8
20260509030814 46 245 0.0 0.0 0.00 0.00 0.00 87 1020.9
20260509030304 46 245 0.0 0.0 0.00 0.00 0.00 87 1021.0
20260509025754 46 245 0.0 0.0 0.00 0.00 0.00 87 1021.0
20260509024735 46 245 0.0 0.0 0.00 0.00 0.00 86 1021.2
20260509024224 46 245 0.0 0.0 0.00 0.00 0.00 86 1021.3
20260509023713 46 245 0.0 0.0 0.00 0.00 0.00 86 1020.9
20260509023204 46 245 0.0 0.0 0.00 0.00 0.00 86 1021.0
20260509022654 46 245 0.0 0.0 0.00 0.00 0.00 86 1021.0
20260509022144 46 245 0.0 0.0 0.00 0.00 0.00 86 1021.1
20260509021712 46 245 0.0 0.0 0.00 0.00 0.00 86 1021.1
20260509021249 46 245 0.0 0.0 0.00 0.00 0.00 86 1021.0
20260509020226 46 245 0.0 0.0 0.00 0.00 0.00 86 1021.1
20260509015043 47 245 0.0 0.0 0.00 0.00 0.00 86 1021.1
20260509014533 47 245 0.0 0.0 0.00 0.00 0.00 86 1021.2
20260509013513 47 245 0.0 0.0 0.00 0.00 0.00 86 1021.1
20260509013042 47 245 0.0 0.0 0.00 0.00 0.00 86 1021.2
20260509012453 47 245 0.0 0.0 0.00 0.00 0.00 86 1021.0
20260509011943 47 245 0.0 0.0 0.00 0.00 0.00 85 1020.9
20260509011434 47 245 0.0 0.0 0.00 0.00 0.00 85 1020.8
20260509010923 47 245 0.0 0.0 0.00 0.00 0.00 84 1020.9
20260509010413 47 245 0.0 0.0 0.00 0.00 0.00 84 1021.1
20260509005353 47 245 0.0 0.0 0.00 0.00 0.00 84 1021.1
20260509004925 47 245 0.0 0.0 0.00 0.00 0.00 83 1021.0
20260509004333 47 245 0.0 0.0 0.00 0.00 0.00 83 1020.8
20260509003905 47 245 0.0 0.0 0.00 0.00 0.00 83 1020.8
20260509001743 48 245 0.0 0.0 0.00 0.00 0.00 82 1021.0
20260509001311 48 245 0.0 0.0 0.00 0.00 0.00 82 1021.4
20260509000723 48 245 0.0 0.0 0.00 0.00 0.00 82 1021.2
20260508235744 48 245 0.0 0.0 0.00 0.00 0.00 81 1021.3
20260508234133 48 245 0.0 0.0 0.00 0.00 0.00 81 1021.2
20260508232053 49 245 0.0 0.0 0.00 0.00 0.00 80 1021.2
20260508231621 49 245 0.0 0.0 0.00 0.00 0.00 80 1021.4
20260508231033 49 245 0.0 0.0 0.00 0.00 0.00 79 1021.3
20260508230523 49 245 0.0 0.0 0.00 0.00 0.00 79 1021.3
20260508230013 49 245 0.0 0.0 0.00 0.00 0.00 79 1021.2
20260508225503 49 244 0.0 0.0 0.00 0.00 0.00 79 1021.2
20260508224011 50 245 0.0 1.0 0.00 0.00 0.00 77 1021.4
20260508222913 50 244 0.0 0.0 0.00 0.00 0.00 77 1021.5
20260508222403 50 244 0.0 1.0 0.00 0.00 0.00 77 1021.4
20260508215812 51 238 0.0 1.0 0.00 0.00 0.00 78 1021.4
20260508214834 51 241 0.0 1.0 0.00 0.00 0.00 79 1021.3
20260508214321 51 237 0.0 0.0 0.00 0.00 0.00 79 1021.4
20260508213733 51 237 0.0 0.0 0.00 0.00 0.00 79 1021.3
20260508213223 51 237 0.0 0.0 0.00 0.00 0.00 78 1021.2
20260508212713 51 237 0.0 0.0 0.00 0.00 0.00 79 1021.2
20260508212203 51 237 0.0 0.0 0.00 0.00 0.00 80 1021.2
20260508205612 51 237 0.0 0.0 0.00 0.00 0.00 80 1021.4
20260508205102 51 237 0.0 0.0 0.00 0.00 0.00 81 1021.3
20260508204552 51 237 0.0 0.0 0.00 0.00 0.00 81 1021.3
20260508204042 51 237 0.0 0.0 0.00 0.00 0.00 80 1021.3
20260508203532 51 237 0.0 0.0 0.00 0.00 0.00 80 1021.1
20260508203023 51 237 0.0 0.0 0.00 0.00 0.00 80 1021.2
20260508202002 51 237 0.0 0.0 0.00 0.00 0.00 79 1021.0
20260508201452 51 237 0.0 0.0 0.00 0.00 0.00 79 1021.0
20260508201021 52 237 0.0 0.0 0.00 0.00 0.00 80 1020.9
20260508200432 52 237 0.0 0.0 0.00 0.00 0.00 80 1021.0
20260508195922 52 237 0.0 0.0 0.00 0.00 0.00 80 1021.0
20260508195412 52 237 0.0 0.0 0.00 0.00 0.00 80 1021.3
20260508194905 52 237 0.0 0.0 0.00 0.00 0.00 80 1021.1
20260508193842 52 237 0.0 0.0 0.00 0.00 0.00 79 1021.0
20260508192901 53 237 0.0 0.0 0.00 0.00 0.00 78 1020.8
20260508191252 53 237 0.0 0.0 0.00 0.00 0.00 77 1020.6
20260508185722 53 237 0.0 0.0 0.00 0.00 0.00 76 1020.7
20260508185250 53 237 0.0 0.0 0.00 0.00 0.00 75 1020.7
20260508184743 53 237 0.0 0.0 0.00 0.00 0.00 75 1020.7
20260508183642 53 237 0.0 0.0 0.00 0.00 0.00 75 1020.5
20260508183132 53 237 0.0 0.0 0.00 0.00 0.00 75 1020.6
20260508182622 53 237 0.0 0.0 0.00 0.00 0.00 74 1020.6
20260508180542 54 237 0.0 0.0 0.00 0.00 0.00 72 1020.2
20260508180035 54 237 0.0 1.0 0.00 0.00 0.00 72 1020.3
20260508175522 54 237 0.0 0.0 0.00 0.00 0.00 71 1020.3
20260508174502 54 240 0.0 1.0 0.00 0.00 0.00 70 1020.3
20260508173955 55 236 0.0 0.0 0.00 0.00 0.00 70 1020.2
20260508173520 55 236 0.0 1.0 0.00 0.00 0.00 70 1020.2
20260508172422 55 239 0.0 1.0 0.00 0.00 0.00 69 1020.3
20260508171912 55 236 0.0 1.0 0.00 0.00 0.00 69 1020.1
20260508171440 55 233 0.0 0.0 0.00 0.00 0.00 69 1019.9
20260508170420 56 192 0.0 2.0 0.00 0.00 0.00 68 1019.9
20260508165832 56 249 0.0 1.0 0.00 0.00 0.00 67 1020.0
20260508165400 56 242 1.0 1.0 0.00 0.00 0.00 67 1019.9
20260508164301 56 210 0.0 1.0 0.00 0.00 0.00 67 1019.9
20260508163242 56 253 0.0 0.0 0.00 0.00 0.00 66 1020.0
20260508162731 56 249 0.0 1.0 0.00 0.00 0.00 65 1020.0
20260508162222 57 245 0.0 2.0 0.00 0.00 0.00 65 1019.9
20260508161205 57 248 0.0 0.0 0.00 0.00 0.00 64 1019.7
20260508160730 57 246 0.0 0.0 0.00 0.00 0.00 64 1019.9
20260508155631 58 221 0.0 1.0 0.00 0.00 0.00 60 1020.0
20260508155122 58 195 0.0 0.0 0.00 0.00 0.00 61 1019.9
20260508154611 58 184 0.0 1.0 0.00 0.00 0.00 61 1019.9
20260508154143 58 220 0.0 0.0 0.00 0.00 0.00 61 1019.7
20260508153551 58 249 0.0 1.0 0.00 0.00 0.00 61 1019.9
20260508152531 58 210 0.0 1.0 0.00 0.00 0.00 60 1019.8
20260508151511 59 216 0.0 0.0 0.00 0.00 0.00 62 1019.8
20260508150451 59 266 0.0 0.0 0.00 0.00 0.00 64 1019.6
20260508145944 58 267 0.0 1.0 0.00 0.00 0.00 62 1019.9
20260508145000 58 262 0.0 1.0 0.00 0.00 0.00 63 1019.9
20260508143901 58 211 0.0 1.0 0.00 0.00 0.00 62 1019.7
20260508143351 58 235 0.0 1.0 0.00 0.00 0.00 63 1019.8
20260508142409 57 280 1.0 2.0 0.00 0.00 0.00 63 1019.9
20260508141821 57 273 1.0 2.0 0.00 0.00 0.00 62 1019.8
20260508135741 57 257 0.0 1.0 0.00 0.00 0.00 63 1020.0
20260508134211 57 237 0.0 1.0 0.00 0.00 0.00 63 1020.1
20260508133701 57 238 0.0 0.0 0.00 0.00 0.00 63 1020.0
20260508133151 57 238 0.0 1.0 0.00 0.00 0.00 64 1020.2
20260508131621 57 216 0.0 0.0 0.00 0.00 0.00 61 1020.2
20260508131150 58 209 0.0 0.0 0.00 0.00 0.00 62 1020.3
20260508130601 58 201 0.0 0.0 0.00 0.00 0.00 60 1020.0
20260508130051 58 258 0.0 1.0 0.00 0.00 0.00 61 1020.1
20260508125706 59 258 1.0 2.0 0.00 0.00 0.00 59 1020.3
20260508124521 59 175 0.0 1.0 0.00 0.00 0.00 62 1020.4
20260508124011 58 211 1.0 1.0 0.00 0.00 0.00 62 1020.1
20260508123539 58 208 0.0 0.0 0.00 0.00 0.00 62 1020.5
20260508122441 58 260 0.0 2.0 0.00 0.00 0.00 59 1020.3
20260508121931 59 215 0.0 0.0 0.00 0.00 0.00 60 1020.3
20260508121459 59 209 0.0 1.0 0.00 0.00 0.00 60 1020.3
20260508120949 59 242 1.0 2.0 0.00 0.00 0.00 58 1020.3
20260508115341 58 259 1.0 2.0 0.00 0.00 0.00 60 1020.4
20260508114834 58 203 1.0 2.0 0.00 0.00 0.00 61 1020.3
20260508114321 58 196 0.0 1.0 0.00 0.00 0.00 61 1020.4
20260508113849 60 234 1.0 1.0 0.00 0.00 0.00 60 1020.2
20260508113301 60 185 0.0 1.0 0.00 0.00 0.00 57 1020.6
20260508112828 60 204 2.0 3.0 0.00 0.00 0.00 59 1020.6
20260508111734 60 177 2.0 3.0 0.00 0.00 0.00 58 1020.3
20260508111220 59 178 0.0 2.0 0.00 0.00 0.00 59 1020.3
20260508110710 58 220 0.0 2.0 0.00 0.00 0.00 63 1020.6
20260508110201 57 187 1.0 2.0 0.00 0.00 0.00 61 1020.5
20260508104633 56 172 0.0 3.0 0.00 0.00 0.00 62 1020.7
20260508103648 57 263 1.0 3.0 0.00 0.00 0.00 64 1020.6
20260508103100 56 262 0.0 1.0 0.00 0.00 0.00 64 1020.7
20260508100000 56 224 0.0 1.0 0.00 0.00 0.00 65 1020.5
20260508095106 56 249 1.0 1.0 0.00 0.00 0.00 64 1020.5
20260508094508 55 196 1.0 1.0 0.00 0.00 0.00 64 1020.5
20260508092903 56 239 0.0 2.0 0.00 0.00 0.00 65 1020.4
20260508092350 55 173 0.0 1.0 0.00 0.00 0.00 66 1020.7
20260508091900 55 281 2.0 2.0 0.00 0.00 0.00 65 1020.7
20260508090804 55 285 1.0 3.0 0.00 0.00 0.00 65 1020.6
20260508090251 55 186 0.0 0.0 0.00 0.00 0.00 67 1020.5
20260508085741 54 203 0.0 1.0 0.00 0.00 0.00 68 1020.6
20260508085231 54 276 1.0 2.0 0.00 0.00 0.00 68 1020.4
20260508084211 54 259 0.0 0.0 0.00 0.00 0.00 67 1020.6
20260508083701 55 276 1.0 3.0 0.00 0.00 0.00 66 1020.3
20260508083154 56 249 0.0 1.0 0.00 0.00 0.00 64 1020.3
20260508082641 57 233 0.0 1.0 0.00 0.00 0.00 63 1020.4
20260508081621 59 183 0.0 2.0 0.00 0.00 0.00 58 1020.4
20260508080639 58 248 1.0 2.0 0.00 0.00 0.00 62 1020.2
20260508080051 58 195 1.0 3.0 0.00 0.00 0.00 60 1020.1
20260508074521 55 198 1.0 2.0 0.00 0.00 0.00 65 1020.3
20260508074052 56 185 2.0 3.0 0.00 0.00 0.00 66 1020.2
20260508073501 54 191 0.0 1.0 0.00 0.00 0.00 68 1020.2
20260508072954 53 263 0.0 1.0 0.00 0.00 0.00 74 1020.1
20260508072441 52 287 2.0 2.0 0.00 0.00 0.00 73 1020.1
20260508071421 51 188 0.0 0.0 0.00 0.00 0.00 75 1020.1
20260508070440 50 237 0.0 2.0 0.00 0.00 0.00 78 1020.0
20260508065851 50 247 1.0 1.0 0.00 0.00 0.00 78 1020.1
20260508064909 50 258 1.0 1.0 0.00 0.00 0.00 79 1019.8
20260508064324 49 202 0.0 1.0 0.00 0.00 0.00 81 1020.0
20260508063811 49 195 1.0 2.0 0.00 0.00 0.00 81 1019.8
20260508062240 48 284 1.0 2.0 0.00 0.00 0.00 83 1019.7
20260508061221 47 191 0.0 1.0 0.00 0.00 0.00 85 1019.6
20260508060326 46 189 0.0 2.0 0.00 0.00 0.00 86 1019.5
20260508055729 46 206 0.0 1.0 0.00 0.00 0.00 87 1019.3
20260508055144 45 224 0.0 1.0 0.00 0.00 0.00 88 1019.6
20260508054631 45 237 0.0 2.0 0.00 0.00 0.00 89 1019.5
20260508054120 44 266 1.0 2.0 0.00 0.00 0.00 89 1019.5
20260508053610 44 238 0.0 1.0 0.00 0.00 0.00 89 1019.3
20260508053101 45 233 0.0 1.0 0.00 0.00 0.00 89 1019.5
20260508052716 45 205 0.0 1.0 0.00 0.00 0.00 89 1019.5
20260508052040 45 210 0.0 0.0 0.00 0.00 0.00 89 1019.9
20260508051530 45 236 0.0 2.0 0.00 0.00 0.00 89 1019.7
20260508050510 44 237 1.0 2.0 0.00 0.00 0.00 90 1019.5
20260508050039 44 258 2.0 2.0 0.00 0.00 0.00 90 1019.7
20260508045450 44 225 0.0 0.0 0.00 0.00 0.00 91 1019.4
20260508045103 44 236 1.0 1.0 0.00 0.00 0.00 91 1019.5
20260508044430 44 218 0.0 0.0 0.00 0.00 0.00 91 1019.6
20260508043920 44 228 0.0 0.0 0.00 0.00 0.00 91 1019.4
20260508043410 44 231 0.0 0.0 0.00 0.00 0.00 91 1019.4
20260508042903 44 238 0.0 0.0 0.00 0.00 0.00 91 1019.3
20260508042350 44 238 0.0 1.0 0.00 0.00 0.00 91 1019.4
20260508041843 44 238 0.0 1.0 0.00 0.00 0.00 91 1019.6
20260508041409 44 235 0.0 1.0 0.00 0.00 0.00 91 1019.5
20260508040823 44 237 0.0 1.0 0.00 0.00 0.00 91 1019.4
20260508035800 44 222 0.0 0.0 0.00 0.00 0.00 91 1019.1
20260508035250 43 235 0.0 0.0 0.00 0.00 0.00 91 1019.3
20260508033720 44 235 0.0 1.0 0.00 0.00 0.00 91 1019.2
20260508033248 44 226 0.0 0.0 0.00 0.00 0.00 91 1019.2
20260508032700 44 221 0.0 0.0 0.00 0.00 0.00 91 1018.9
20260508032150 44 236 0.0 1.0 0.00 0.00 0.00 91 1019.2